User: anonymous   Login
Location: Unspecified
(0.0000°N, 0.0000°E)
Time: 12:22:25
(UTC+02:00)
Language:

ITAMSAT 1 - Orbit

View from above orbital plane
View from above orbital plane
View from above satellite
View from above satellite

Ground track
Ground track

The orbit data is extracted from the following two-line orbital elements,

1 22826U 93061D   17147.86716942 -.00000005 +00000-0 +15734-4 0  9992
2 22826 098.8047 113.2850 0009472 027.7060 332.4624 14.30325200234421
Epoch (UTC): 27 May 2017 20:48:43
Eccentricity: 0.0009472
inclination: 98.8047°
perigee height: 784 km
apogee height: 797 km
right ascension of ascending node: 113.2850°
argument of perigee: 27.7060°
revolutions per day: 14.30325200
mean anomaly at epoch: 332.4624°
orbit number at epoch: 23442

The dashed part of the orbit path shows where the satellite is in the earth's shadow,  

DLR